Time+07,TemperatureF,Dew PointF,Humidity,Sea Level PressureIn,VisibilityMPH,Wind Direction,Wind SpeedMPH,Gust SpeedMPH,PrecipitationIn,Events,Conditions,WindDirDegrees,DateUTC
12:00 AM,75.2,73.4,94,29.92,3.1,WNW,9.2,-,N/A,Rain,Rain,300,2012-10-14 17:00:00
12:30 AM,75.2,73.4,94,29.89,4.3,NW,8.1,-,N/A,Rain,Light Rain,310,2012-10-14 17:30:00
1:00 AM,76,74,93,29.85,5,Calm,Calm,,,Thunderstorm,Light Thunderstorm,,2012-10-14 18:00:00
1:00 AM,75.2,73.4,94,29.89,5.0,Calm,Calm,-,N/A,,Mostly Cloudy,0,2012-10-14 18:00:00
1:30 AM,75.2,73.4,94,29.89,5.0,Calm,Calm,-,N/A,,Mostly Cloudy,0,2012-10-14 18:30:00
2:00 AM,75.2,73.4,94,29.89,3.1,Calm,Calm,-,N/A,Rain,Light Rain,0,2012-10-14 19:00:00
2:30 AM,75.2,73.4,94,29.86,3.1,East,5.8,-,N/A,Rain,Light Rain,80,2012-10-14 19:30:00
3:00 AM,75.2,73.4,94,29.86,3.1,Calm,Calm,-,N/A,Rain,Light Rain,0,2012-10-14 20:00:00
5:00 AM,75.2,73.4,94,29.89,5.0,Calm,Calm,-,N/A,,Mostly Cloudy,0,2012-10-14 22:00:00
5:30 AM,75.2,73.4,94,29.89,5.0,Calm,Calm,-,N/A,,Mostly Cloudy,0,2012-10-14 22:30:00
6:00 AM,75.2,73.4,94,29.89,5.0,Calm,Calm,-,N/A,,Mostly Cloudy,0,2012-10-14 23:00:00
6:30 AM,75.2,73.4,94,29.89,5.0,Calm,Calm,-,N/A,,Mostly Cloudy,0,2012-10-14 23:30:00
7:00 AM,76,75,96,29.86,6,Calm,Calm,,,,Mist,,2012-10-15 00:00:00
7:00 AM,75.2,73.4,94,29.92,5.0,Calm,Calm,-,N/A,,Mostly Cloudy,0,2012-10-15 00:00:00
7:30 AM,75.2,73.4,94,29.92,5.0,Calm,Calm,-,N/A,,Mostly Cloudy,0,2012-10-15 00:30:00
8:00 AM,77.0,75.2,94,29.92,5.0,Calm,Calm,-,N/A,,Mostly Cloudy,0,2012-10-15 01:00:00
8:30 AM,80.6,75.2,84,29.95,5.0,Calm,Calm,-,N/A,,Mostly Cloudy,0,2012-10-15 01:30:00
9:00 AM,80.6,73.4,79,29.95,5.0,Variable,2.3,-,N/A,,Mostly Cloudy,0,2012-10-15 02:00:00
9:30 AM,82.4,75.2,79,29.95,5.0,Variable,2.3,-,N/A,,Mostly Cloudy,0,2012-10-15 02:30:00
10:00 AM,82.4,75.2,79,29.95,5.0,Variable,3.5,-,N/A,,Mostly Cloudy,0,2012-10-15 03:00:00
10:30 AM,84.2,75.2,74,29.95,5.0,Variable,1.2,-,N/A,,Mostly Cloudy,0,2012-10-15 03:30:00
11:00 AM,82.4,75.2,79,29.95,5.0,ENE,6.9,-,N/A,,Mostly Cloudy,60,2012-10-15 04:00:00
11:30 AM,84.2,75.2,74,29.95,5.0,ENE,5.8,-,N/A,,Mostly Cloudy,60,2012-10-15 04:30:00
12:00 PM,84.2,73.4,70,29.92,5.0,East,5.8,-,N/A,,Mostly Cloudy,80,2012-10-15 05:00:00
12:30 PM,84.2,73.4,70,29.92,5.0,ENE,5.8,-,N/A,,Mostly Cloudy,70,2012-10-15 05:30:00
1:00 PM,86,76,65,29.88,6,Calm,Calm,,,,Scattered Clouds,,2012-10-15 06:00:00
1:00 PM,86.0,75.2,70,29.89,5.0,ENE,3.5,-,N/A,,Mostly Cloudy,60,2012-10-15 06:00:00
1:30 PM,86.0,73.4,66,29.86,5.0,East,5.8,-,N/A,,Mostly Cloudy,80,2012-10-15 06:30:00
2:00 PM,86.0,73.4,66,29.86,5.0,East,6.9,-,N/A,,Mostly Cloudy,80,2012-10-15 07:00:00
2:30 PM,86.0,73.4,66,29.83,5.0,East,6.9,-,N/A,,Mostly Cloudy,80,2012-10-15 07:30:00
3:00 PM,84.2,73.4,70,29.83,5.0,East,6.9,-,N/A,,Mostly Cloudy,80,2012-10-15 08:00:00
3:30 PM,84.2,75.2,74,29.83,5.0,East,8.1,-,N/A,,Mostly Cloudy,80,2012-10-15 08:30:00
4:00 PM,84.2,75.2,74,29.83,5.0,East,4.6,-,N/A,,Mostly Cloudy,100,2012-10-15 09:00:00
4:30 PM,82.4,75.2,79,29.83,5.0,East,4.6,-,N/A,,Mostly Cloudy,90,2012-10-15 09:30:00
5:00 PM,82.4,75.2,79,29.83,5.0,East,4.6,-,N/A,,Mostly Cloudy,90,2012-10-15 10:00:00
5:30 PM,82.4,73.4,74,29.83,5.0,Variable,2.3,-,N/A,,Mostly Cloudy,0,2012-10-15 10:30:00
6:00 PM,80.6,75.2,84,29.83,5.0,Calm,Calm,-,N/A,,Mostly Cloudy,0,2012-10-15 11:00:00
6:30 PM,80.6,73.4,79,29.83,5.0,Variable,2.3,-,N/A,,Mostly Cloudy,0,2012-10-15 11:30:00
7:00 PM,82,78,83,29.80,5,Calm,Calm,,,,Mist,,2012-10-15 12:00:00
7:00 PM,78.8,75.2,89,29.83,5.0,Calm,Calm,-,N/A,,Mostly Cloudy,0,2012-10-15 12:00:00
7:30 PM,78.8,75.2,89,29.86,5.0,Variable,1.2,-,N/A,,Mostly Cloudy,0,2012-10-15 12:30:00
8:00 PM,78.8,75.2,89,29.89,5.0,Calm,Calm,-,N/A,,Mostly Cloudy,0,2012-10-15 13:00:00
8:30 PM,77.0,75.2,94,29.89,5.0,Calm,Calm,-,N/A,,Mostly Cloudy,0,2012-10-15 13:30:00
9:00 PM,78.8,75.2,89,29.92,5.0,Calm,Calm,-,N/A,,Mostly Cloudy,0,2012-10-15 14:00:00
9:30 PM,77.0,75.2,94,29.92,5.0,Calm,Calm,-,N/A,,Mostly Cloudy,0,2012-10-15 14:30:00
10:00 PM,77.0,75.2,94,29.92,5.0,Calm,Calm,-,N/A,,Mostly Cloudy,0,2012-10-15 15:00:00
10:30 PM,77.0,75.2,94,29.92,5.0,Calm,Calm,-,N/A,,Mostly Cloudy,0,2012-10-15 15:30:00
11:00 PM,77.0,75.2,94,29.92,5.0,Calm,Calm,-,N/A,,Mostly Cloudy,0,2012-10-15 16:00:00
11:30 PM,77.0,75.2,94,29.92,5.0,Calm,Calm,-,N/A,,Mostly Cloudy,0,2012-10-15 16:30:00